When you browse on this site, cookies collect data to enhance your experience and personalize the content and advertising you see.
Visit our Privacy Policy to learn more. By continuing to use the site, you agree to this use of cookies and data.
  • In Portugal
  • List of Countries
  • For 7 days
  • Water Temperature
  • Satellite Maps
  • Weather Map
  • Weather Widgets
  • user-avatar
    Login

    Hourly Weather Dahab

    Today, 27 May, Monday

    Time Temperature Precipitation Wind Pressure Humidity
    00:00 +32°C° 0 mm 2 mps 712 mmHg 25%
    01:00 +31°C° 0 mm 2 mps 712 mmHg 27%
    02:00 +30°C° 0 mm 2 mps 712 mmHg 28%
    03:00 +30°C° 0 mm 3 mps 712 mmHg 29%
    04:00 +29°C° 0 mm 3 mps 711 mmHg 30%
    05:00 +29°C° 0 mm 3 mps 711 mmHg 31%
    06:00 +31°C° 0 mm 3 mps 712 mmHg 28%
    07:00 +33°C° 0 mm 3 mps 712 mmHg 25%
    08:00 +35°C° 0 mm 3 mps 712 mmHg 21%
    09:00 +36°C° 0 mm 3 mps 712 mmHg 20%
    10:00 +37°C° 0 mm 3 mps 712 mmHg 19%
    11:00 +38°C° 0 mm 2 mps 712 mmHg 18%
    12:00 +38°C° 0 mm 2 mps 712 mmHg 17%
    13:00 +39°C° 0 mm 2 mps 712 mmHg 17%
    14:00 +39°C° 0 mm 2 mps 711 mmHg 16%
    15:00 +39°C° 0 mm 2 mps 711 mmHg 16%
    16:00 +39°C° 0 mm 2 mps 711 mmHg 16%
    17:00 +39°C° 0 mm 2 mps 711 mmHg 16%
    18:00 +38°C° 0 mm 2 mps 711 mmHg 17%
    19:00 +37°C° 0 mm 3 mps 711 mmHg 17%
    20:00 +36°C° 0 mm 3 mps 711 mmHg 18%
    21:00 +35°C° 0 mm 3 mps 712 mmHg 19%
    22:00 +35°C° 0 mm 3 mps 712 mmHg 21%
    23:00 +34°C° 0 mm 3 mps 712 mmHg 22%

    Tomorrow, 28 May, Tuesday

    Time Temperature Precipitation Wind Pressure Humidity
    00:00 +34°C° 0 mm 3 mps 712 mmHg 23%
    01:00 +33°C° 0 mm 3 mps 711 mmHg 24%
    02:00 +33°C° 0 mm 3 mps 711 mmHg 25%
    03:00 +31°C° 0 mm 3 mps 711 mmHg 25%
    04:00 +30°C° 0 mm 3 mps 711 mmHg 25%
    05:00 +30°C° 0 mm 3 mps 711 mmHg 26%
    06:00 +31°C° 0 mm 3 mps 711 mmHg 22%
    07:00 +34°C° 0 mm 3 mps 712 mmHg 19%
    08:00 +35°C° 0 mm 3 mps 712 mmHg 16%
    09:00 +36°C° 0 mm 3 mps 712 mmHg 15%
    10:00 +37°C° 0 mm 3 mps 712 mmHg 14%
    11:00 +38°C° 0 mm 3 mps 712 mmHg 13%
    12:00 +38°C° 0 mm 3 mps 712 mmHg 13%
    13:00 +39°C° 0 mm 3 mps 711 mmHg 13%
    14:00 +39°C° 0 mm 2 mps 711 mmHg 13%
    15:00 +39°C° 0 mm 2 mps 710 mmHg 13%
    16:00 +38°C° 0 mm 2 mps 710 mmHg 14%
    17:00 +37°C° 0 mm 1 mps 710 mmHg 14%
    18:00 +37°C° 0 mm 2 mps 710 mmHg 14%
    19:00 +37°C° 0 mm 3 mps 711 mmHg 14%
    20:00 +36°C° 0 mm 3 mps 711 mmHg 14%
    21:00 +35°C° 0 mm 3 mps 711 mmHg 15%
    22:00 +35°C° 0 mm 3 mps 711 mmHg 17%
    23:00 +34°C° 0 mm 3 mps 712 mmHg 18%

    Day after tomorrow, 29 May, Wednesday

    Time Temperature Precipitation Wind Pressure Humidity
    00:00 +33°C° 0 mm 3 mps 711 mmHg 21%
    01:00 +33°C° 0 mm 3 mps 711 mmHg 23%
    02:00 +31°C° 0 mm 3 mps 711 mmHg 25%
    03:00 +30°C° 0 mm 3 mps 711 mmHg 26%
    04:00 +30°C° 0 mm 3 mps 711 mmHg 27%
    05:00 +30°C° 0 mm 3 mps 710 mmHg 28%
    06:00 +32°C° 0 mm 4 mps 711 mmHg 25%
    07:00 +34°C° 0 mm 4 mps 711 mmHg 21%
    08:00 +35°C° 0 mm 4 mps 711 mmHg 18%
    09:00 +36°C° 0 mm 3 mps 712 mmHg 17%
    10:00 +37°C° 0 mm 3 mps 712 mmHg 17%
    11:00 +38°C° 0 mm 3 mps 712 mmHg 16%
    12:00 +38°C° 0 mm 2 mps 711 mmHg 15%
    13:00 +39°C° 0 mm 2 mps 711 mmHg 15%
    14:00 +40°C° 0 mm 2 mps 711 mmHg 14%
    15:00 +39°C° 0 mm 2 mps 711 mmHg 14%
    16:00 +39°C° 0 mm 2 mps 710 mmHg 14%
    17:00 +39°C° 0 mm 2 mps 710 mmHg 14%
    18:00 +38°C° 0 mm 2 mps 711 mmHg 15%
    19:00 +37°C° 0 mm 2 mps 711 mmHg 16%
    20:00 +36°C° 0 mm 2 mps 711 mmHg 16%
    21:00 +36°C° 0 mm 3 mps 711 mmHg 18%
    22:00 +35°C° 0 mm 3 mps 711 mmHg 19%
    23:00 +34°C° 0 mm 3 mps 711 mmHg 20%

    30 May, Thursday

    Time Temperature Precipitation Wind Pressure Humidity
    00:00 +34°C° 0 mm 3 mps 711 mmHg 23%
    01:00 +33°C° 0 mm 3 mps 711 mmHg 25%
    02:00 +33°C° 0 mm 3 mps 711 mmHg 28%
    03:00 +32°C° 0 mm 4 mps 711 mmHg 28%
    04:00 +32°C° 0 mm 4 mps 711 mmHg 29%
    05:00 +32°C° 0 mm 4 mps 710 mmHg 30%
    06:00 +33°C° 0 mm 4 mps 711 mmHg 27%
    07:00 +35°C° 0 mm 4 mps 711 mmHg 24%
    08:00 +36°C° 0 mm 4 mps 712 mmHg 20%
    09:00 +37°C° 0 mm 3 mps 712 mmHg 19%
    10:00 +38°C° 0 mm 3 mps 712 mmHg 18%
    11:00 +39°C° 0 mm 3 mps 712 mmHg 17%
    12:00 +39°C° 0 mm 3 mps 711 mmHg 16%
    13:00 +40°C° 0 mm 2 mps 711 mmHg 16%
    14:00 +40°C° 0 mm 2 mps 711 mmHg 15%
    15:00 +40°C° 0 mm 2 mps 710 mmHg 15%
    16:00 +40°C° 0 mm 2 mps 710 mmHg 15%
    17:00 +40°C° 0 mm 3 mps 710 mmHg 15%
    18:00 +39°C° 0 mm 3 mps 711 mmHg 17%
    19:00 +38°C° 0 mm 4 mps 711 mmHg 19%
    20:00 +37°C° 0 mm 5 mps 711 mmHg 20%
    21:00 +36°C° 0 mm 4 mps 711 mmHg 21%
    22:00 +35°C° 0 mm 4 mps 712 mmHg 22%
    23:00 +34°C° 0 mm 4 mps 712 mmHg 23%

    31 May, Friday

    Time Temperature Precipitation Wind Pressure Humidity
    00:00 +34°C° 0 mm 4 mps 711 mmHg 22%
    01:00 +33°C° 0 mm 4 mps 711 mmHg 21%
    02:00 +33°C° 0 mm 4 mps 711 mmHg 20%
    03:00 +32°C° 0 mm 4 mps 711 mmHg 20%
    04:00 +32°C° 0 mm 4 mps 711 mmHg 19%
    05:00 +32°C° 0 mm 4 mps 711 mmHg 19%
    06:00 +33°C° 0 mm 4 mps 711 mmHg 18%
    07:00 +35°C° 0 mm 4 mps 711 mmHg 17%
    08:00 +36°C° 0 mm 4 mps 712 mmHg 15%
    09:00 +37°C° 0 mm 4 mps 712 mmHg 15%
    10:00 +37°C° 0 mm 4 mps 711 mmHg 15%
    11:00 +38°C° 0 mm 4 mps 711 mmHg 15%
    12:00 +40°C° 0 mm 4 mps 711 mmHg 15%
    13:00 +40°C° 0 mm 4 mps 711 mmHg 15%
    14:00 +40°C° 0 mm 4 mps 710 mmHg 15%
    15:00 +40°C° 0 mm 4 mps 710 mmHg 16%
    16:00 +40°C° 0 mm 5 mps 710 mmHg 16%
    17:00 +40°C° 0 mm 5 mps 710 mmHg 16%
    18:00 +37°C° 0 mm 5 mps 710 mmHg 18%
    19:00 +36°C° 0 mm 5 mps 711 mmHg 20%
    20:00 +35°C° 0 mm 5 mps 711 mmHg 21%
    21:00 +35°C° 0 mm 5 mps 711 mmHg 22%
    22:00 +34°C° 0 mm 5 mps 711 mmHg 23%
    23:00 +33°C° 0 mm 5 mps 711 mmHg 24%

    1 June, Saturday

    Time Temperature Precipitation Wind Pressure Humidity
    00:00 +33°C° 0 mm 5 mps 710 mmHg 24%
    01:00 +32°C° 0 mm 5 mps 710 mmHg 24%
    02:00 +32°C° 0 mm 5 mps 710 mmHg 25%
    03:00 +32°C° 0 mm 5 mps 710 mmHg 23%
    04:00 +32°C° 0 mm 5 mps 710 mmHg 22%
    05:00 +30°C° 0 mm 4 mps 710 mmHg 21%
    06:00 +33°C° 0 mm 4 mps 711 mmHg 19%
    07:00 +34°C° 0 mm 4 mps 711 mmHg 18%
    08:00 +35°C° 0 mm 4 mps 711 mmHg 16%
    09:00 +36°C° 0 mm 4 mps 711 mmHg 16%
    10:00 +37°C° 0 mm 4 mps 711 mmHg 16%
    11:00 +38°C° 0 mm 4 mps 711 mmHg 15%
    12:00 +38°C° 0 mm 4 mps 711 mmHg 15%
    13:00 +40°C° 0 mm 4 mps 711 mmHg 15%
    14:00 +40°C° 0 mm 4 mps 710 mmHg 15%
    15:00 +40°C° 0 mm 5 mps 710 mmHg 15%
    16:00 +39°C° 0 mm 5 mps 710 mmHg 16%
    17:00 +39°C° 0 mm 6 mps 710 mmHg 16%
    18:00 +37°C° 0 mm 5 mps 710 mmHg 18%
    19:00 +36°C° 0 mm 5 mps 710 mmHg 20%
    20:00 +35°C° 0 mm 5 mps 711 mmHg 22%
    21:00 +35°C° 0 mm 5 mps 711 mmHg 23%
    22:00 +34°C° 0 mm 5 mps 711 mmHg 24%
    23:00 +34°C° 0 mm 4 mps 711 mmHg 25%
    Show more